Regional Weather Roundup
Issued by NWS

Home | Current Version | Previous Version | Graphics & Text | Print | Product List | Glossary On
Versions: 1 2 3 4 5 6 7 8 9 10 11 12 13 14 15 16 17 18 19 20 21 22 23 24 25 26 27 28 29 30 31 32 33 34 35 36 37 38 39 40 41 42 43 44 45 46 47 48 49 50
000
ASUS43 KTOP 140059
RWRKS

WEATHER ROUNDUP FOR KANSAS
NATIONAL WEATHER SERVICE GOODLAND KS
800 PM CDT SUN JUL 13 2014

NOTE:  "FAIR" INDICATES FEW OR NO CLOUDS BELOW 12,000 FEET WITH NO
SIGNIFICANT WEATHER AND/OR OBSTRUCTIONS TO VISIBILITY.

KSZ001>006-013>018-027>032-041>047-140200-
NORTHWEST KANSAS

CITY           SKY/WX    TMP DP  RH WIND       PRES   REMARKS
GOODLAND       CLOUDY    68  63  84 SE6       30.18F
HAYS           MOSUNNY   82  63  51 S7        30.06S
HILL CITY      PTSUNNY   85  56  37 E3        30.07R
RUSSELL        PTCLDY    83  60  45 E7        30.03S
$$

KSZ061>065-074>080-084>089-140200-
SOUTHWEST KANSAS

CITY           SKY/WX    TMP DP  RH WIND       PRES   REMARKS
DODGE CITY     PTSUNNY   84  56  38 E8        30.10R
ELKHART          N/A     81  65  58 SE6         N/A
GARDEN CITY    MOSUNNY   84  58  40 E9        30.11S
GREAT BEND     MOCLDY    84  63  48 E3        30.04S
LIBERAL        CLOUDY    86  57  37 E12       30.13R
$$

KSZ066>073-081>083-090>101-140200-
SOUTHEAST KANSAS

CITY           SKY/WX    TMP DP  RH WIND       PRES   REMARKS
CHANUTE        PTCLDY    84  70  62 N6        29.97R
COFFEYVILLE    PTCLDY    87  72  60 N8        29.93S
HUTCHINSON     PTCLDY    82  68  62 N5        30.02S
MEDICINE LODGE   N/A     82  68  62 NE6       30.01F
NEWTON         MOCLDY    82  64  54 N8        30.05R
PARSONS        PTCLDY    84  70  62 NE5       29.96S
WICHITA INTL   MOCLDY    84  68  58 NE8       29.99F
WICHITA JABRA  MOCLDY    83  71  67 NE5       30.00S
WINFIELD       PTCLDY    85  72  65 N10       30.00R
$$

KSZ007>012-019>026-033>040-048>060-102>105-140200-
NORTHEAST KANSAS

CITY           SKY/WX    TMP DP  RH WIND       PRES   REMARKS
CONCORDIA      CLEAR     83  63  50 NE5       30.02R
EMPORIA        PTCLDY    83  68  60 VRB3      30.00R
LAWRENCE       CLEAR     84  71  65 CALM      29.98R
MANHATTAN      CLEAR     86  67  52 CALM      29.99R
OLATHE IND     PTCLDY    81  69  67 N9        29.99R
OLATHE EXE     PTCLDY    83  68  60 N7        29.98R
SALINA         CLEAR     88  63  43 NE6       30.01R
TOPEKA BILLARD CLEAR     85  69  58 CALM      29.98S
TOPEKA FORBES  CLEAR     84  68  58 NE5       29.99S
$$


USA.gov is the U.S. government's official web portal to all federal, state and local government web resources and services.